Location: Hilton Head Island
(32.2163°N, 80.7526°W)
Time: 17:45:59
(UTC-04:00)

A-11 Canister half - Pass Details

Date: 22 February 2026
Orbit: 1525 x 1683 km, 47.3° (Epoch: 10 March)

Event Time Altitude Azimuth Distance (km) Brightness Sun altitude
Rises 20:42:58 0° 307° (NW) 4,679 12.4 -31.9°
Reaches altitude 10° 20:46:08 10° 312° (NW) 3,692 11.6 -32.6°
Enters shadow 20:55:04 53° 26° (NNE) 1,824 9.1 -34.4°
